Погода в Усть-Луге

Россия / Санкт-Петербург и Ленинградская область     59°39′27″N   28°15′59″E
темп.,
°C
ветер,
м/с
пор.,
м/с
влажн.,
%
обл.,
%
осадки,
мм/ч
давл.,
гПа
погр.,
м
27 июля, вт
вт2700:00+20вюв33675 0.0 102023
03:00+19ююв34715 0.0 102063
06:00+19ююв35720 0.0 101984
09:00+22юв236353 0.0 101977
12:00+24ссв235740 0.0 1018430
15:00+24св345674 0.0 1016491
18:00+24всв5654100 0.0 1015416
21:00+22в4462100 0.0 101431
28 июля, ср
ср2800:00+21вюв3466100 0.0 101345
03:00+19юв4870100 0.3 1012129
06:00+18ююв4786100 2.1 1011164
09:00+18в3693100 4.8 1010171
12:00+19в5891100 0.7 1009381
15:00+20ююв3587100 2.7 1007143
18:00+20юз348781 3.6 100686
21:00+20з468991 4.7 1006113
29 июля, чт
чт2900:00+19зюз22871 0.0 100531
03:00+19ююз46915 0.1 1004136
06:00+19юз689094 0.0 1004286
09:00+19юз6887100 0.0 1003342
12:00+20юз710840 1.4 1003569
15:00+20з611815 2.4 1002521
18:00+20з612785 0.3 1002492
21:00+19з510840 0.3 1002327
30 июля, пт
пт3000:00+19юз7117995 0.2 1001471
03:00+18юз8118017 0.2 1001603
06:00+18юз913819 0.0 1001839
09:00+19юз912720 0.2 10011114
12:00+19зюз8126818 0.8 10001081
15:00+19зюз91269100 2.0 1000990
18:00+20зюз9136540 0.8 9991072
21:00+19зюз71173100 1.8 998493
31 июля, сб
сб3100:00+18ююз913759 1.0 997942
03:00+17ююз101483100 2.4 995874
06:00+15ююз101392100 6.4 994748
09:00+16ююз91189100 16.8 993744
12:00+18з910783 1.9 994926
15:00+18зсз79720 1.9 997816
18:00+18зсз45710 0.0 998497
21:00+18юз457366 0.0 1000262